This is the latest recevied weather packets stored in our database for station/object KB2SKP. If no packets are shown the sender has not sent any weather packets the latest 10 day(s).
| Time | Temp. | Humidity | Pressure | Rain* | Wind** | Luminosity | Snow |
|---|---|---|---|---|---|---|---|
| 1778003051 | 27.78° C | 41% | 1008.8 hPa | 0 mm | - | 42 W/m² | - |
| 1778002747 | 27.78° C | 40% | 1008.8 hPa | 0 mm | - | 38 W/m² | - |
| 1778002443 | 27.78° C | 41% | 1008.8 hPa | 0 mm | - | 43 W/m² | - |
| 1778002140 | 27.22° C | 42% | 1008.7 hPa | 0 mm | - | 37 W/m² | - |
| 1778001838 | 26.67° C | 42% | 1008.9 hPa | 0 mm | - | 38 W/m² | - |
| 1778001537 | 26.67° C | 42% | 1008.9 hPa | 0 mm | - | 38 W/m² | - |
| 1778001234 | 26.67° C | 43% | 1009.1 hPa | 0 mm | - | 64 W/m² | - |
| 1778000931 | 26.11° C | 43% | 1009.2 hPa | 0 mm | - | 38 W/m² | - |
| 1778000628 | 26.11° C | 41% | 1009.3 hPa | 0 mm | - | 37 W/m² | - |
| 1778000323 | 26.11° C | 41% | 1009.3 hPa | 0 mm | - | 172 W/m² | - |
| 1778000019 | 26.67° C | 42% | 1009.3 hPa | 0 mm | - | 37 W/m² | - |
| 1777999715 | 26.11° C | 43% | 1009.4 hPa | 0 mm | - | 35 W/m² | - |
| 1777999412 | 26.11° C | 42% | 1009.5 hPa | 0 mm | - | 37 W/m² | - |
| 1777999110 | 26.11° C | 42% | 1009.6 hPa | 0 mm | - | 37 W/m² | - |
| 1777998809 | 26.11° C | 42% | 1009.6 hPa | 0 mm | - | 35 W/m² | - |
| 1777998507 | 25.56° C | 43% | 1009.7 hPa | 0 mm | - | 35 W/m² | - |
| 1777998202 | 25.56° C | 44% | 1009.9 hPa | 0 mm | - | 35 W/m² | - |
| 1777997900 | 25.56° C | 43% | 1009.8 hPa | 0 mm | - | 38 W/m² | - |
| 1777997597 | 25° C | 46% | 1009.7 hPa | 0 mm | - | 35 W/m² | - |
| 1777997294 | 25° C | 45% | 1010.1 hPa | 0 mm | - | 35 W/m² | - |
| 1777996992 | 25° C | 45% | 1010.2 hPa | 0 mm | - | 35 W/m² | - |
| 1777996688 | 25° C | 47% | 1010.1 hPa | 0 mm | - | 90 W/m² | - |
| 1777996384 | 25° C | 47% | 1009.9 hPa | 0 mm | - | 48 W/m² | - |
| 1777996081 | 24.44° C | 48% | 1010.2 hPa | 0 mm | - | 36 W/m² | - |
| 1777995777 | 24.44° C | 49% | 1010.2 hPa | 0 mm | - | 34 W/m² | - |
* Rain latest hour (hover to see other rain measurements)
** Current wind speed in m/s (hover to see current wind gust speed)